Regional Weather Roundup
Issued by NWS Glasgow, MT

Home | Current Version | Previous Version | Text Only | Print | Product List | Glossary On
Versions: 1 2 3 4 5 6 7 8 9 10 11 12 13 14 15 16 17 18 19 20 21 22 23 24 25 26 27 28 29 30 31 32 33 34 35 36 37 38 39 40 41 42 43 44 45 46 47 48 49 50
000
ASUS45 KGGW 191415
RWRGGW
HOURLY WEATHER ROUNDUP FOR NORTHEAST MONTANA
NATIONAL WEATHER SERVICE GLASGOW MONTANA
700 AM MST FRI DEC 19 2014

NOTE: "FAIR" INDICATES FEW OR NO CLOUDS BELOW 12,000 FEET WITH NO
SIGNIFICANT WEATHER AND/OR OBSTRUCTIONS TO VISISBILITY.

NORTHEAST MONTANA


CITY           SKY/WX    TMP DP  RH WIND       PRES   REMARKS
GLASGOW        PTCLDY    19  16  88 CALM      29.90S
PLENTYWOOD       N/A    N/A N/A N/A N1          N/A
WOLF POINT     PTCLDY    16  12  84 CALM      29.93S
JORDAN           N/A     20  18  92 W6        29.91S
WINNETT          N/A     20  20 100 CALM        N/A
SIDNEY         PTCLDY    21  19  93 CALM      29.95R
GLENDIVE       MOCLDY    25  21  86 S6        29.93S

FORT PECK REPORTS


CITY           SKY/WX    TMP DP  RH WIND       PRES   REMARKS
FORT PECK        N/A     30  30 100 SE3         N/A
THE PINES        N/A     29  29 100 SW1         N/A

SOUTHEAST MONTANA


CITY           SKY/WX    TMP DP  RH WIND       PRES   REMARKS
BILLINGS       PTCLDY    30  17  58 SW17      29.94F
MILES CITY     PTCLDY    23  19  85 SE7       29.95R
BAKER          MOCLDY    26  21  81 CALM      29.94R
LIVINGSTON     PTCLDY    37  22  54 W16       29.93S

CENTRAL MONTANA


CITY           SKY/WX    TMP DP  RH WIND       PRES   REMARKS
HAVRE          CLEAR     19  17  92 NW5       29.88F
LEWISTOWN      CLEAR     30  20  66 SW13      29.89S
GREAT FALLS    CLOUDY    33  25  72 S10       29.86S
CUT BANK       CLOUDY    26  20  77 S6        29.81F
HELENA         CLOUDY    26  23  88 CALM      29.96S
BUTTE          CLOUDY    20  16  84 CALM      29.98S
BOZEMAN        MOCLDY    23  19  85 CALM      29.98S

WESTERN MONTANA


CITY           SKY/WX    TMP DP  RH WIND       PRES   REMARKS
MISSOULA       CLOUDY    29  28  96 CALM      29.97F
KALISPELL      NOT AVBL

NORTH DAKOTA


CITY           SKY/WX    TMP DP  RH WIND       PRES   REMARKS
WILLISTON      FOG       21  19  92 CALM      29.93R VSB 1/2
DICKINSON      MOCLDY    29  22  75 CALM      29.90R
MINOT          CLOUDY    28  26  92 CALM      29.92S FOG
BISMARCK       CLOUDY    23  21  92 E3        29.96S

SOUTHERN SASKATCHEWAN


CITY           SKY/WX    TMP DP  RH WIND       PRES   REMARKS
REGINA         FOG       19  18  93 W7        29.91S VSB 1/2
MOOSE JAW      FRZ DRZL N/A N/A N/A N2          N/A  VSB 5/8
ESTEVAN        NOT AVBL
SWIFT CURRENT  CLEAR     18  16  93 S8        29.85S




USA.gov is the U.S. government's official web portal to all federal, state and local government web resources and services.